Location: Unspecified
(0.0000°N, 0.0000°E)
Time: 11:17:25
(UTC+00:00)

Vanguard 1 - Pass Details

Date: 21 November 2019
Orbit: 651 x 3832 km, 34.3° (Epoch: 13 December)

Event Time Altitude Azimuth Distance (km) Brightness Sun altitude
Rises 03:06:58 0° 222° (SW) 7,427 14.4 -36.9°
Reaches altitude 10° 03:12:29 10° 214° (SW) 6,673 14.2 -35.7°
Maximum altitude 03:33:34 40° 151° (SSE) 4,768 13.7 -30.9°
Drops below altitude 10° 03:51:31 10° 87° (E) 5,849 14.8 -26.7°
Sets 03:55:47 0° 80° (E) 6,491 15.1 -25.7°
